Tracking 30009 objects as of 7-Dec-2024
HD Live streaming from Space Station
objects crossing your sky now

GOES 2

Track GOES 2 now!
GOES 2 is classified as:


NORAD ID: 10061
Int'l Code: 1977-048A
Perigee: 35,990.6 km
Apogee: 36,092.2 km
Inclination: 7.7 °
Period: 1,448.8 minutes
Semi major axis: 42412 km
RCS: 2.5118 m2 (large)
Launch date: June 16, 1977
Source: United States (US)
Launch site: AIR FORCE EASTERN TEST RANGE (AFETR)
Your satellite tracking list
Your tracking list is empty




NASA's NSSDC Master Catalog

Two Line Element Set (TLE):
1 10061U 77048A   24341.85489899 -.00000122  00000-0  00000-0 0  9994
2 10061   7.7474 298.1177 0011974  32.8515 152.7882  0.99394815 40735
Source of the keplerian elements: AFSPC